OpenBCM V2.0.2 (Linux)

Packet Radio Mailbox

IZ3LSV

[San Dona' di P. JN]

 Login: GUEST





  
LU9DCE > KEPS     15.04.18 18:26l 261 Lines 13003 Bytes #999 (0) @ WW
BID : 36809_LU9DCE
Read: GUEST
Subj: SAT TLE OF 15
Path: IZ3LSV<DB0ERF<DB0RES<IR2UBX<IW8PGT<CX2SA<EA2RCF<LU9DCE
Sent: 180415/1601Z @:LU9DCE.TOR.BA.ARG.SOAM #:36809 [TORTUGUITAS] FBB7.0.8-beta
From: LU9DCE@LU9DCE.TOR.BA.ARG.SOAM
To  : KEPS@WW


            __    _  _  ___  ____   ___  ____    ____  ____  ____
           (  )  / )( \/ _ \(    \ / __)(  __)  (  _ \(  _ \/ ___)
           / (_/\) \/ (\__  )) D (( (__  ) _)    ) _ ( ) _ (\___ \
           \____/\____/(___/(____/ \___)(____)  (____/(____/(____/
               ESTACION DE PACKET RADIO - BUENOS AIRES (GF05OM)
                   BOLETINES INFORMATIVOS PROGRAMADOS (BIP)
                    LU9DCE@GMX.COM - RF 147070 @ 1200 BAUD
                           telnet lu9dce.dynu.com
             BBS port 6300 / NODE port 3694 / DXCLUSTER port 9000

+------------------------------------------------------------------------------+
OSCAR 7
1 07530U 74089B   18105.54235142 -.00000047  00000-0 -17841-4 0  9992
2 07530 101.6809  73.8182 0012505  95.9831  23.8611 12.53632119986747
OSCAR 11 (UoSAT 2)
1 14781U 84021B   18105.11625387  .00000072  00000-0  15059-4 0  9997
2 14781  97.6567 143.9971 0007052 293.9902  66.0574 14.82994798835099
OSCAR 19 (LUSAT)
1 20442U 90005G   18105.43651853 -.00000009  00000-0  12976-4 0  9995
2 20442  98.6059  44.3298 0011405 341.2902  18.7861 14.32892115474904
KITSAT B
1 22825U 93061C   18105.52915156 -.00000001  00000-0  17385-4 0  9997
2 22825  98.8572  80.5287 0008647 162.2664 197.8821 14.30027047280613
POSAT 1
1 22826U 93061D   18104.93090636 +.00000000 +00000-0 +17817-4 0  9997
2 22826 098.8512 079.9658 0009314 154.5313 205.6329 14.30358234280468
RADIO ROSTO
1 23439U 94085A   18104.90384854 -.00000038 +00000-0 +12070-3 0  9997
2 23439 064.8150 091.1780 0159320 193.5661 185.1424 11.27567047959439
JAS 2
1 24278U 96046B   18105.52371089 -.00000004  00000-0  34668-4 0  9994
2 24278  98.5229 312.8956 0349293 273.5368  82.5892 13.53082878 69765
TECHSAT 1B
1 25397U 98043D   18105.48053291 -.00000015  00000-0  12570-4 0  9993
2 25397  98.6451  46.9736 0001299 149.3116 210.8139 14.23643367 26801
ISS (ZARYA)
1 25544U 98067A   18105.51925310  .00002699  00000-0  47756-4 0  9990
2 25544  51.6438 331.1221 0001905 355.8915  76.9789 15.54265438108775
PCSAT
1 26931U 01043C   18105.43026788 -.00000009  00000-0  28252-4 0  9995
2 26931  67.0530  31.3409 0007019 282.2449  77.7866 14.30500713863576
SAUDISAT 1C
1 27607U 02058C   18104.90601228  .00000004  00000-0  21336-4 0  9992
2 27607  64.5544 283.4614 0057993 342.9151  16.9997 14.75438574823628
CUTE-1
1 27844U 03031E   18105.55102443  .00000053  00000-0  43660-4 0  9992
2 27844  98.6887 115.1266 0009645 185.9297 174.1768 14.22105755767297
CUBESAT XI 4
1 27848U 03031J   18105.49293340  .00000043  00000-0  39438-4 0  9993
2 27848  98.6974 115.4461 0009332 196.4250 163.6626 14.21710729767150
MOZHAYETS 4
1 27939U 03042A   18105.48174694  .00000115  00000-0  29132-4 0  9995
2 27939  97.9797 246.2717 0012647 353.7750  77.0785 14.66674393777621
CUBESAT XI 5
1 28895U 05043F   18104.89879134 +.00000151 +00000-0 +37883-4 0  9997
2 28895 097.8998 258.9499 0015389 269.1628 090.7811 14.63530249664380
CUTE-1.7+APD II
1 32785U 08021C   18105.17759532  .00000248  00000-0  32612-4 0  9992
2 32785  97.5504 120.3551 0011651 244.4652 115.5361 14.88094492539801
DELFI C3
1 32789U 08021G   18104.79199420  .00001072  00000-0  77780-4 0  9998
2 32789  97.5184 161.1924 0013513 148.3228 211.8815 15.05903499542248
SEEDS
1 32791U 08021J   18105.03312765  .00000269  00000-0  32889-4 0  9996
2 32791  97.5405 125.4307 0012288 223.6889 136.3358 14.90513209540108
YUBELEINY
1 32953U 08025A   18105.50292070 -.00000001  00000-0 -78227-4 0  9990
2 32953  82.5051  51.6564 0019246 350.5802   9.4914 12.43082784448986
PRISM (HITOMI)
1 33493U 09002B   18105.57093565  .00000065  00000-0  11432-4 0  9994
2 33493  98.1375   5.2404 0015238 157.5424 202.6454 14.96147430500983
KKS-1 (KISEKI)
1 33499U 09002H   18105.17205257  .00000121  00000-0  25883-4 0  9997
2 33499  98.3540 284.8988 0010230 128.6599 231.5526 14.75313976495886
SWISSCUBE
1 35932U 09051B   18104.94456451 +.00000156 +00000-0 +46362-4 0  9996
2 35932 098.5355 254.6176 0008487 051.4686 308.7271 14.56142475454197
BEESAT
1 35933U 09051C   18104.97632783  .00000120  00000-0  38005-4 0  9990
2 35933  98.5397 256.1573 0006889  64.3062 295.8845 14.56248384454343
ITUPSAT 1
1 35935U 09051E   18104.99542519  .00000111  00000-0  36746-4 0  9991
2 35935  98.5510 256.4305 0009121  58.1015 302.1068 14.55427407454139
XIWANG-1 (HOPE-1)
1 36122U 09072B   18104.92834457 -.00000011 +00000-0 +80647-4 0  9990
2 36122 100.0797 122.5127 0006797 257.3240 102.7114 13.16344142400225
TISAT 1
1 36799U 10035E   18104.88919657  .00000347  00000-0  41356-4 0  9997
2 36799  98.0958 239.4667 0013512  60.5040 299.7523 14.90751852420723
JUGNU
1 37839U 11058B   18104.29264635  .00000314  00000-0  25500-4 0  9990
2 37839  19.9618  64.6894 0018749 262.2265 248.3899 14.12615545336321
SRMSAT
1 37841U 11058D   18105.19698795  .00000308  00000-0  24047-4 0  9999
2 37841  19.9715 107.1096 0011942 157.7663 284.9366 14.10603346335976
M-CUBED/EXP-1 PRIME
1 37855U 11061F   18104.95568630 +.00001328 +00000-0 +75922-4 0  9996
2 37855 101.7232 135.1381 0176892 269.3369 088.7572 15.04262907351674
HORYU 2
1 38340U 12025D   18105.55156692  .00000222  00000-0  40755-4 0  9993
2 38340  98.3707 125.1089 0012630  54.7958 305.4430 14.75528797317870
STRAND 1
1 39090U 13009E   18105.56632779  .00000039  00000-0  28882-4 0  9998
2 39090  98.5282 312.7454 0010220 119.6512 240.5693 14.35019311268848
SOMP
1 39134U 13015E   18104.93420317 +.00001489 +00000-0 +80122-4 0  9992
2 39134 064.8640 331.4970 0020165 218.9523 141.0153 15.18990620274910
BEESAT 3
1 39135U 13015F   18104.91888592 +.00000945 +00000-0 +57996-4 0  9993
2 39135 064.8699 344.0873 0026532 244.0456 115.7936 15.16538862274669
BEESAT 2
1 39136U 13015G   18104.93245614 +.00001029 +00000-0 +63125-4 0  9993
2 39136 064.8704 346.6592 0026796 242.7196 117.1200 15.16012900274616
CUBEBUG 1
1 39153U 13018D   18105.24632788  .00000242  00000-0  38643-4 0  9995
2 39153  97.9764 200.8699 0017854 146.4598 213.7748 14.80370912268284
ZACUBE
1 39417U 13066B   18104.86938578  .00000264  00000-0  39724-4 0  9999
2 39417  97.5936 136.8676 0059148   4.1763 355.9931 14.80907980237429
TRITON 1
1 39427U 13066M   18105.50956536  .00000231  00000-0  44521-4 0  9991
2 39427  97.6402 105.5952 0115643 100.0503 261.3775 14.67636370235386
GOMX 1
1 39430U 13066Q   18105.41768857  .00000194  00000-0  43994-4 0  9993
2 39430  97.6929  86.8338 0151832 168.1405 192.3438 14.59052325234009
HUMSAT D
1 39433U 13066T   18105.12548331  .00000428  00000-0  47598-4 0  9991
2 39433  97.6106 163.6900 0029464 293.5401  66.2723 14.91805695239027
50 SAT
1 39436U 13066W   18105.16095822  .00232753  00000-0  15780-2 0  9994
2 39436  97.7124 237.0814 0003493 293.6405  66.4491 15.74299914243426
CUBEBUG 2
1 39440U 13066AA  18105.01183595  .00000282  00000-0  46121-4 0  9993
2 39440  97.6053 123.9886 0081548  41.6192 319.1186 14.75642834236608
FUNCUBE 1
1 39444U 13066AE  18104.62828793  .00000304  00000-0  44003-4 0  9991
2 39444  97.5947 138.0839 0058174   0.6311 359.4966 14.81678388236248
UWE-3
1 39446U 13066AG  18105.07501263  .00000273  00000-0  43035-4 0  9992
2 39446  97.5981 130.1783 0070788  22.8666 337.5672 14.78176632235794
SPROUT
1 39770U 14029E   18105.53437896  .00001066  00000-0  12581-3 0  9995
2 39770  97.8723 207.1197 0010478  60.9469 299.2813 14.86767077211051
UNISAT 6
1 40012U 14033C   18105.54949379  .00000243  00000-0  43711-4 0  9992
2 40012  97.8175 344.1111 0059549  42.1320 318.4444 14.73792720205473
DUCHIFAT 1
1 40021U 14033M   18105.34751880  .00000410  00000-0  48082-4 0  9990
2 40021  97.9172  23.9523 0013880  31.2884 328.9157 14.90255089207595
QB50P1
1 40025U 14033R   18105.30243076  .00000365  00000-0  45054-4 0  9998
2 40025  97.9074  20.8246 0013467  37.2931 322.9218 14.88677032207436
CHUBUSAT 1
1 40300U 14070C   18105.41159815  .00001080  00000-0  50799-4 0  9991
2 40300  97.3673 184.4434 0021759 119.7293 305.3837 15.21482342190739
NUDT-PHONESAT
1 40900U 15049B   18105.22245435  .00002206  00000-0  10235-3 0  9998
2 40900  97.4423 114.2084 0011831 246.6396 113.3596 15.21051067142344
ZDPS 2A
1 40901U 15049C   18105.41569870  .00000948  00000-0  51336-4 0  9991
2 40901  97.4601 112.7451 0012058 254.1978 105.7926 15.16974658142140
ZDPS 2B
1 40902U 15049D   18105.18302970  .00000914  00000-0  49911-4 0  9991
2 40902  97.4496 110.6425 0012169 251.8118 108.1791 15.16772332142090
XW-2A
1 40903U 15049E   18105.42423251  .00001985  00000-0  51378-4 0  9994
2 40903  97.3908 139.6409 0012534 254.6493 105.3368 15.40247399144148
KAITUO 1A
1 40904U 15049F   18105.53402414  .00000879  00000-0  50578-4 0  9997
2 40904  97.4595 110.2907 0012934 254.9759 219.3453 15.14958558142014
OBJECT G
1 40905U 15049G   18105.42586308  .00000447  00000-0  28221-4 0  9992
2 40905  97.4590 108.3638 0014285 245.5803 114.3939 15.13917003141927
XW-2C
1 40906U 15049H   18105.44646041  .00000702  00000-0  40939-4 0  9990
2 40906  97.4606 110.0909 0013512 244.8236 115.1596 15.15105930141996
XW-2D
1 40907U 15049J   18105.53711712  .00000736  00000-0  42615-4 0  9999
2 40907  97.4579 109.8844 0012897 241.9860 118.0068 15.15250342142014
LILACSAT 2
1 40908U 15049K   18105.20428797  .00000393  00000-0  25571-4 0  9993
2 40908  97.4689 108.9971 0014545 244.9327 115.0395 15.13459999141848
XW-2F
1 40910U 15049M   18105.53416570  .00001114  00000-0  60668-4 0  9996
2 40910  97.4584 111.0836 0013648 237.6177 122.3736 15.16400026141957
XW-2B
1 40911U 15049N   18105.55234951  .00000698  00000-0  40639-4 0  9992
2 40911  97.4615 110.4133 0012801 242.5355 117.4576 15.15196563141919
